New York Downtown Manhattan/w, NY

4:22 PM EST on December 11, 2019 (GMT -0500)
New York Downtown Manhattan/w

Weather History for KJRB - November, 2019

Change the Weather History Date:

Monday, November 11, 2019

  Actual Average (KEWR) Record (KEWR)
Temperature  
Mean Temperature 55 °F -  
Max Temperature 62 °F 55 °F 75 °F (1949)
Min Temperature 48 °F 41 °F 24 °F (2017)
Degree Days  
Heating Degree Days 10    
Growing Degree Days 5 (Base 50)    
Moisture  
Dew Point 44 °F    
Average Humidity 68    
Maximum Humidity 87    
Minimum Humidity 50    
Precipitation  
Precipitation 0.00 in - - ()
Sea Level Pressure  
Sea Level Pressure 30.02 in    
Wind  
Wind Speed 4 mph ()    
Max Wind Speed 7 mph    
Max Gust Speed -    
Averages and records for this station are not official NWS values.
T = Trace of Precipitation, MM = Missing Value Source: Averaged Metar Reports

Daily Weather History Graph

Daily Weather History Graph

Search for Another Location

Airport or City:

Astronomy

Nov. 11, 2019 Rise Set
Actual Time 6:37 AM EST 4:41 PM EST
Civil Twilight 6:08 AM EST 5:10 PM EST
Nautical Twilight 5:35 AM EST 5:43 PM EST
Astronomical Twilight 5:03 AM EST 6:15 PM EST
Moon 4:36 PM EST 5:25 AM EST
Length of Visible Light 11h 02m
Length of Day
10h 03m
Waxing Gibbous, 99% of the Moon is Illuminated
Nov 11
Waxing Gibbous
Nov 12
Full
Nov 19
Last Quarter
Nov 26
New
Dec 4
First Quarter

Hourly Weather History & Observations

Time (EST) Temp. Dew Point Humidity Pressure Visibility Wind Dir Wind Speed Gust Speed Precip Events Conditions
12:56 AM 51.1 °F 39.0 °F 63% 30.09 in - WSW 5.8 mph - N/A   Overcast
1:56 AM 51.1 °F 37.9 °F 61% 30.08 in - West 6.9 mph - N/A   Overcast
2:56 AM 50.0 °F 37.0 °F 61% 30.07 in - West 5.8 mph - N/A   Partly Cloudy
3:56 AM 48.9 °F 37.0 °F 64% 30.07 in - West 3.5 mph - N/A   Clear
4:56 AM 48.9 °F 37.0 °F 64% 30.08 in - SSE 3.5 mph - N/A   Clear
5:56 AM 50.0 °F 41.0 °F 71% 30.09 in - WNW 4.6 mph - N/A   Clear
6:56 AM 51.1 °F 43.0 °F 74% 30.09 in - West 4.6 mph - N/A   Clear
7:56 AM 52.0 °F 43.0 °F 71% 30.10 in - West 4.6 mph - N/A   Clear
8:56 AM 53.1 °F 44.1 °F 71% 30.11 in - WSW 5.8 mph - N/A   Clear
9:56 AM 54.0 °F 44.1 °F 69% 30.10 in - South 4.6 mph - N/A   Clear
10:56 AM 55.9 °F 43.0 °F 62% 30.09 in - SW 5.8 mph - N/A   Clear
11:56 AM 57.9 °F 43.0 °F 58% 30.06 in - Calm Calm - N/A   Clear
12:56 PM 61.0 °F 42.1 °F 50% 30.04 in - Calm Calm - N/A   Clear
1:56 PM 62.1 °F 43.0 °F 50% 30.02 in - Calm Calm - N/A   Clear
2:56 PM 61.0 °F 45.0 °F 56% 30.00 in - West 3.5 mph - N/A   Clear
3:56 PM 60.1 °F 46.0 °F 60% 29.99 in - SSE 5.8 mph - N/A   Clear
4:56 PM 57.0 °F 46.9 °F 69% 29.98 in - ESE 3.5 mph - N/A   Clear
5:56 PM 55.9 °F 48.9 °F 77% 29.95 in - Variable 4.6 mph - N/A   Clear
6:56 PM 55.9 °F 50.0 °F 80% 29.92 in - Variable 3.5 mph - N/A   Clear
7:56 PM 55.9 °F 51.1 °F 84% 29.91 in - Variable 3.5 mph - N/A   Clear
9:56 PM 55.9 °F 52.0 °F 87% 29.88 in - WSW 6.9 mph - N/A   Clear
10:56 PM 55.0 °F 51.1 °F 86% 29.84 in - WSW 4.6 mph - N/A   Clear
11:56 PM 55.9 °F 50.0 °F 80% 29.82 in - Variable 5.8 mph - N/A   Clear